#timestamp,LO_Frequency,Hit,StdDev 
1508745615.3,286046999.5,N
1508745635.1,286047000.5,N
1508745655.8,286046998.9,N
1508745675.7,286046997.3,N
1508745695.5,286046997.9,N
1508745715.3,286047001.1,N
1508745735.2,286046998.7,N
1508745755.9,286047002.4,N
1508745775.7,286047005.6,N
1508745795.6,286047003.4,N
1508745815.4,286047002.7,N
1508745835.2,286047001.2,N
1508745855.1,286046999.9,N
1508745856.0,286046999.9,N
1508745875.8,286047000.1,N
1508745895.7,286046999.3,N
1508745915.5,286047002.3,N
1508745935.3,286047000.4,N
1508745955.2,286047001.0,N
1508745975.9,286047000.0,N
1508745995.7,286047002.6,N
1508746015.6,286047005.4,N
1508746035.4,286047003.5,N
1508746055.2,286047001.0,N
1508746075.1,286047005.3,N
1508746076.0,286047005.3,N
1508746095.8,286047007.3,N
1508746115.6,286047006.6,N
1508746135.5,286047004.9,N
1508746155.3,286047005.1,N
1508746175.2,286047003.5,N
1508746195.9,286047002.4,N
1508746215.7,286047002.6,N
1508746235.6,286047005.5,N
1508746255.4,286047007.3,N
1508746275.2,286047004.9,N
1508746295.1,286047009.4,Y
1508746296.0,286047009.4,P
1508746315.8,286047006.6,N
1508746335.6,286047001.9,N
1508746355.5,286047002.8,N
1508746375.3,286047002.1,N
1508746395.1,286046999.9,N
1508746415.9,286047002.5,N
1508746435.7,286047004.0,N
1508746455.5,286047001.7,N
1508746475.4,286047000.0,N
1508746495.2,286046995.1,N
1508746515.1,286046998.4,N
1508746516.0,286046998.4,N
1508746535.8,286046999.2,N
1508746555.6,286046998.4,N
1508746575.5,286046996.9,N
1508746595.3,286046997.1,N
1508746615.1,286046997.1,N
1508746635.9,286046995.9,N
1508746655.7,286046995.5,N
1508746675.5,286046993.4,N
1508746695.4,286046993.3,N
1508746715.2,286046994.9,N
1508746735.0,286046999.1,N
1508746735.9,286046999.1,N
1508746755.8,286047000.8,N
1508746775.6,286046996.7,N
1508746795.4,286047000.2,N
1508746815.3,286047002.1,N
1508746835.1,286047002.8,N
1508746855.8,286047005.0,N
1508746875.7,286047008.7,N
1508746895.5,286047005.8,N
1508746915.4,286047002.9,N
1508746935.2,286047001.5,N
1508746955.0,286047001.9,N
1508746955.9,286047001.9,N
1508746975.8,286047001.4,N
1508746995.6,286047000.4,N
1508747015.4,286046994.9,N
1508747035.3,286046999.0,N
1508747055.1,286046995.5,N
1508747075.8,286047002.7,N
1508747095.7,286046998.2,N
1508747115.5,286046999.0,N
1508747135.3,286046999.3,N
1508747155.2,286046997.5,N
1508747175.0,286046997.9,N
1508747175.9,286046997.9,N
1508747195.8,286046997.6,N
1508747215.6,286046999.1,N
1508747235.4,286046998.8,N
1508747255.3,286046994.9,N
1508747275.1,286046997.6,N
1508747276.0,286046997.6,N
1508747295.8,286046997.0,N
1508747315.7,286046998.3,N
1508747335.5,286046999.9,N
1508747355.3,286046998.4,N
1508747375.2,286046995.2,N
1508747395.9,286046998.4,N
1508747415.7,286046998.3,N
1508747435.6,286046995.4,N
1508747455.4,286046991.7,Y
1508747475.2,286046994.2,P
1508747495.1,286046996.1,N
1508747496.0,286046996.1,N
1508747515.8,286047000.4,N
1508747535.7,286047000.9,N
1508747555.5,286047000.0,N
1508747575.3,286046999.0,N
1508747595.2,286046998.2,N
1508747615.9,286047001.5,N
1508747635.7,286047002.5,N
1508747655.6,286047002.8,N
1508747675.4,286046997.1,N
1508747695.2,286046999.6,N
1508747715.1,286046998.9,N
1508747716.0,286046998.9,N
1508747735.8,286046999.3,N
1508747755.6,286047004.3,N
1508747775.5,286047000.7,N
1508747795.3,286047001.4,N
1508747815.1,286047002.5,N
1508747835.9,286047005.7,N
1508747855.7,286047004.2,N
1508747875.5,286047002.4,N
1508747895.4,286047002.3,N
1508747915.2,286047001.6,N
1508747935.0,286047000.5,N
1508747935.9,286047000.5,N
1508747955.8,286046998.8,N
1508747975.6,286046995.4,N
1508747995.5,286046999.8,N
1508748015.3,286047002.8,N
1508748035.1,286047002.5,N
1508748055.9,286047000.7,N
1508748075.7,286046998.4,N
1508748095.5,286046998.1,N
1508748115.4,286046995.3,N
1508748135.2,286046998.0,N
1508748155.0,286046991.7,Y
1508748155.9,286046991.7,P
1508748175.8,286046992.9,N
1508748195.6,286046993.8,N
1508748215.4,286046993.5,N
1508748235.3,286046994.6,N
1508748255.1,286046994.0,N
1508748275.8,286046992.5,N
1508748295.7,286046996.2,N
1508748315.5,286046992.0,Y
1508748335.3,286046998.3,P
1508748355.2,286047000.6,N
1508748375.0,286046998.1,N
1508748375.9,286046998.1,N
1508748395.7,286046999.5,N
1508748415.6,286047000.5,N
1508748435.4,286047003.9,N
1508748455.2,286047003.8,N
1508748475.1,286047001.1,N
1508748476.0,286047001.1,N
1508748495.8,286046998.4,N
1508748515.6,286046996.7,N
1508748535.5,286046995.4,N
1508748555.3,286046992.1,N
1508748575.1,286046994.2,N
1508748595.9,286046995.4,N
1508748615.7,286046997.8,N
1508748635.5,286046999.1,N
1508748655.4,286046994.9,N
1508748675.2,286046996.7,N
1508748695.0,286046997.5,N
1508748695.9,286046997.5,N
1508748715.8,286046996.9,N
1508748735.6,286046996.1,N
1508748755.4,286046993.9,N
1508748775.3,286046995.2,N
1508748795.1,286046999.2,N
1508748815.8,286046996.8,N
1508748835.7,286046997.5,N
1508748855.5,286046998.9,N
1508748875.3,286046998.4,N
1508748895.2,286046999.5,N
1508748915.0,286046998.6,N
1508748915.9,286046998.6,N
1508748935.8,286046996.7,N
1508748955.6,286046993.6,N
1508748975.4,286046997.9,N
1508748995.3,286046999.5,N
1508749015.1,286046999.3,N
1508749016.0,286046999.3,N
1508749035.8,286046996.0,N
1508749055.7,286046996.1,N
1508749075.5,286046993.9,Y
1508749095.3,286046999.0,P
1508749115.2,286046997.4,N
1508749135.0,286046999.6,N
1508749135.9,286046999.6,N
1508749155.7,286046998.7,N
1508749175.6,286047000.5,N
1508749195.4,286047001.1,N
